This demonstration page uses our WeatherBlox Daily Observations layout. Learn more.

Left ArrowRight Arrow

39.08367, -84.50855

Hourly Observations for March 22, 2020

Temp ( °F °C ) Dew Point ( °F °C ) Humidity (%) Winds ( mph kmh ) Pressure ( in mb ) Visibility ( mi km ) Precip ( " mm )
12:53 am 00:53 Mostly Clear 33 0.6 25 -3.9 72 72 ENE 7 11 30.52 1033 10 16 N/A
1:53 am 01:53 Clear 31 -0.6 24 -4.4 76 76 ENE 7 11 30.51 1033 10 16 N/A
2:53 am 02:53 Clear 30 -1.1 25 -3.9 82 82 ENE 6 9 30.52 1033 10 16 N/A
3:53 am 03:53 Clear 30 -1.1 25 -3.9 82 82 NE 8 13 30.51 1033 10 16 N/A
4:53 am 04:53 Clear 30 -1.1 24 -4.4 79 79 NE 9 15 30.51 1033 10 16 N/A
5:53 am 05:53 Clear 29 -1.7 24 -4.4 82 82 NE 7 11 30.51 1033 10 16 N/A
6:53 am 06:53 Clear 29 -1.7 24 -4.4 82 82 NE 8 13 30.51 1033 10 16 N/A
7:53 am 07:53 Sunny 29 -1.7 25 -3.9 85 85 NE 6 9 30.52 1034 10 16 N/A
8:53 am 08:53 Sunny 32 undefined 26 -3.3 79 79 ENE 7 11 30.53 1034 10 16 N/A
9:53 am 09:53 Mostly Sunny 36 2.2 28 -2.2 73 73 NE 8 13 30.52 1034 10 16 N/A
10:53 am 10:53 Cloudy 39 3.9 28 -2.2 65 65 E 9 15 30.48 1032 10 16 N/A
11:53 am 11:53 Sunny 42 5.6 29 -1.7 60 60 E 7 11 30.47 1032 10 16 N/A
12:53 pm 12:53 Sunny 45 7.2 29 -1.7 54 54 ENE 9 15 30.45 1031 10 16 N/A
1:53 pm 13:53 Mostly Sunny 45 7.2 30 -1.1 56 56 E 9 15 30.40 1029 10 16 N/A
2:53 pm 14:53 Cloudy with Light Rain 45 7.2 30 -1.1 56 56 NE 8 13 30.35 1028 10 16 0.00 0.00
3:53 pm 15:53 Cloudy with Light Rain 44 6.7 32 undefined 63 63 ENE 12 19 30.31 1026 10 16 0.00 0.00
4:53 pm 16:53 Mostly Cloudy 44 6.7 34 1.1 68 68 NNE 9 15 30.30 1026 10 16 0.00 0.00
5:53 pm 17:53 Cloudy 44 6.7 34 1.1 68 68 NE 8 13 30.29 1026 10 16 0.00 0.00
6:53 pm 18:53 Mostly Sunny 43 6.1 34 1.1 71 71 NNE 6 9 30.29 1026 10 16 N/A
7:53 pm 19:53 Cloudy 43 6.1 34 1.1 71 71 NE 8 13 30.24 1024 10 16 N/A
8:53 pm 20:53 Cloudy 43 6.1 36 2.2 76 76 NE 7 11 30.22 1023 10 16 N/A
9:53 pm 21:53 Cloudy 43 6.1 36 2.2 76 76 N N/A 30.24 1024 10 16 N/A
10:53 pm 22:53 Cloudy 43 6.1 38 3.3 82 82 N N/A 30.22 1023 10 16 0.00 0.00
11:53 pm 23:53 Cloudy 44 6.7 38 3.3 79 79 N N/A 30.20 1023 10 16 0.00 0.00

Powered by AerisWeather